Weather Roundup
Issued by NWS Chicago, IL

Home | Current Version | Previous Version | Text Only | Print | Product List | Glossary Off
Versions: 1 2 3 4 5 6 7 8 9 10 11 12 13 14 15 16 17 18 19 20 21 22 23 24 25 26 27 28 29 30 31 32 33 34 35 36 37 38 39 40 41 42 43 44 45 46 47 48 49 50

000
NZUS59 KLOT 240506
HRRLOT

CHICAGO AREA WEATHER ROUNDUP
NATIONAL WEATHER SERVICE CHICAGO/ROMEOVILLE IL
1200 AM CDT FRI OCT 24 2014

NOTE: "FAIR" INDICATES FEW OR NO CLOUDS BELOW 12,000 FEET WITH NO
SIGNIFICANT WEATHER AND/OR OBSTRUCTIONS TO VISIBILITY.

* THESE STATIONS ARE NOT UNDER NWS QUALITY CONTROL. THEY ALSO MAY NOT
  REPORT WEATHER SUCH AS PRECIPITATION OR FOG.

ILZ005-006-012>014-019>023-240600-
NORTHEAST ILLINOIS

CITY           SKY/WX    TMP DP  RH WIND       PRES   REMARKS
OHARE          CLOUDY    55  42  61 SW5       30.05F
MIDWAY         CLOUDY    56  43  61 SW8       30.06F
AURORA         CLOUDY    54  44  69 S5        30.06F
LANSING*       CLOUDY    52  43  71 S3        30.08S
JOLIET*        CLOUDY    53  45  75 S3        30.07F
WAUKEGAN       CLOUDY    51  46  83 CALM      30.04F
DUPAGE AIRPORT CLOUDY    54  44  69 S5        30.05F
WHEELING       CLOUDY    56  42  59 S5        30.07F
KANKAKEE*      CLOUDY    51  44  77 S5        30.09F
MORRIS*        CLOUDY    51  48  90 CALM      30.06S
LEWIS AIRPORT* CLOUDY    53  45  72 SW3       30.07S
NORTHERLY IS     N/A     56  41  57 S10         N/A
$$

WIZ051-052-058>065-066-070>072-240600-
SOUTHEAST WISCONSIN

CITY           SKY/WX    TMP DP  RH WIND       PRES   REMARKS
MILWAUKEE      CLOUDY    51  48  89 SE6       30.04F
KENOSHA*       CLOUDY    51  49  92 CALM      30.05F
RACINE*        CLOUDY    51  48  89 CALM      30.06F
BURLINGTON     CLOUDY    47  47  99 CALM      30.04F FOG
WAUKESHA       CLOUDY    46  46 100 SW3       30.04F
WEST BEND      CLOUDY    50  46  87 SW7       30.02F
$$

INZ001>003-010>013-019-020-240600-
NORTHWEST INDIANA

CITY           SKY/WX    TMP DP  RH WIND       PRES   REMARKS
GARY*          CLOUDY    55  42  60 S3        30.08F
MICHIGAN CITY* NOT AVBL
RENSSELAER*    NOT AVBL
VALPARAISO     CLOUDY    50  42  74 SW3       30.09F
$$

LMZ740>746-240600-
SOUTHERN LAKE MICHIGAN

STATION/POSITION TIME  SKY/WX   TEMP WIND        PRES    VSBY
                                AIR  DIR/SP/G
                 (UTC)          (F)  (DEG/KT/KT) (MB)    (MI)
HARRISON CRIB    0400            56  190/ 13/ 14   N/A
BURNHAM HARBOR   0500            56  210/  6/  9   N/A
CALUMET HARBOR   0400            55  190/  3/  5 1017.1F
BURNS HARBOR     NOT AVBL
MICHIGAN CITY    0500            53  160/  9/ 12   N/A
$$

ABBREVIATIONS USED IN REMARKS
   TC - TEMPERATURE IN CELSIUS
  WCI - WIND CHILL INDEX
   HX - HEAT INDEX
  VSB - VISIBILITY
$$



USA.gov is the U.S. government's official web portal to all federal, state and local government web resources and services.